Home > Weather > Constanța > Past weeks

Flag for Romania Past Weather in Constanța, Romania — Yesterday and Last 2 Weeks

Now
55 °F

Partly sunny.


Feels Like: 55 °F
Forecast: 58 / 69 °F
Wind: 2 mph from Northwest

Location: Constanta

Current Time: May 26, 2016 at 9:59:07 AM

Latest Report: May 26, 2016 at 9:00 AM


Visibility: 6 mi

Pressure: 29.71 "Hg

Humidity: 90%

Dew Point: 52 °F

Location of ConstanțaLocation

Past Weather in Constanța — Graph

°F

Constanța Temperature Yesterday

Maximum temperature yesterday: 64 °F (at 12:00 PM)
Minimum temperature yesterday: 56 °F (at 6:00 PM)
Average temperature yesterday: 59 °F

High & Low Weather Summary for the Past Weeks

 TemperatureHumidityPressure
High76 °F (May 15, 5:00 PM)100% (May 13, 6:00 AM)30.07 "Hg (May 13, 6:00 AM)
Low49 °F (May 19, 7:00 AM)33% (May 18, 5:00 PM)29.50 "Hg (May 13, 7:00 AM)
Average62 °F74%29.84 "Hg
* Reported May 11 8:00 AM — May 26 8:00 AM, Constanța, Weather by CustomWeather, © 2016

Note: Actual official high and low records may vary slightly from our data, if they occured in-between our weather recording intervals... More about our weather records

Advertising

Constanța Weather History for the Previous 24 Hours

Scroll right to see more
 ConditionsComfort  
Time TempWeatherWind HumidityBarometerVisibility
8:00 AM
Thu, May 26
55 °FPartly sunny.2 mph89%29.69 "Hg6 mi
7:00 AM55 °FScattered clouds.2 mph92%29.67 "Hg6 mi
6:00 AM56 °FPartly sunny.2 mph91%29.67 "Hg6 mi
5:00 AM56 °FPassing clouds.3 mph91%29.65 "Hg6 mi
4:00 AM57 °FPassing clouds.5 mph87%29.65 "Hg6 mi
3:00 AM57 °FPassing clouds.5 mph88%29.65 "Hg6 mi
2:00 AM56 °FPassing clouds.3 mph92%29.64 "Hg6 mi
1:00 AM57 °FPassing clouds.2 mph88%29.64 "Hg6 mi
12:00 AM58 °FPassing clouds.1 mph87%29.63 "Hg6 mi
11:00 PM
Wed, May 25
58 °FPassing clouds.1 mph84%29.63 "Hg6 mi
10:00 PM58 °FPassing clouds.1 mph81%29.62 "Hg6 mi
9:00 PM58 °FPassing clouds.No wind82%29.60 "Hg6 mi
8:00 PM58 °FOvercast.1 mph87%29.60 "Hg6 mi
7:00 PM58 °FPartly sunny.2 mph89%29.59 "Hg6 mi
6:00 PM56 °FSprinkles. Overcast.No wind93%29.59 "Hg6 mi
5:00 PM59 °FSprinkles. Overcast.1 mph88%29.59 "Hg6 mi
4:00 PM60 °FSprinkles. Overcast.3 mph79%29.59 "Hg6 mi
3:00 PM62 °FOvercast.2 mph71%29.58 "Hg6 mi
2:00 PM62 °FThunderstorms. Overcast.2 mph74%29.59 "Hg6 mi
1:00 PM58 °FThundershowers. Overcast.2 mph87%29.59 "Hg6 mi
12:00 PM64 °FPartly sunny.1 mph63%29.58 "Hg6 mi
11:00 AM62 °FPartly sunny.2 mph68%29.58 "Hg6 mi
10:00 AM60 °FPartly sunny.2 mph76%29.57 "Hg6 mi
9:00 AM60 °FPartly sunny.2 mph75%29.57 "Hg6 mi
Weather by CustomWeather, © 2016

See weather overviewHow to use our weather pages